Weather History for Escanaba, MI

Change the Weather History Date:

Friday, October 4, 2013

  Actual Average Record
Temperature  
Mean Temperature 56 °F -  
Max Temperature 60 °F 58 °F 75 °F (1958)
Min Temperature 53 °F 42 °F 21 °F (1999)
Degree Days  
Heating Degree Days 8    
Growing Degree Days 6 (Base 50)    
Moisture  
Dew Point 50 °F    
Average Humidity 78    
Maximum Humidity 88    
Minimum Humidity 68    
Precipitation  
Precipitation 0.02 in - - ()
Sea Level Pressure  
Sea Level Pressure 30.03 in    
Wind  
Wind Speed 7 mph (NE)    
Max Wind Speed 13 mph    
Max Gust Speed 17 mph    
Visibility 10 miles    
Events      
Averages and records for this station are not official NWS values.
T = Trace of Precipitation, MM = Missing Value Source: NWS Daily Summary

Daily Weather History Graph

Daily Weather History Graph

Search for Another Location

Airport:

Trip Planner

Search our weather history database for the weather conditions in past years. The results will help you decide how hot, cold, wet, or windy it might be!

Date:

Astronomy

Oct. 04, 2013 Rise Set
Actual Time 7:50 AM EDT 7:22 PM EDT
Civil Twilight 7:21 AM EDT 7:51 PM EDT
Nautical Twilight 6:46 AM EDT 8:26 PM EDT
Astronomical Twilight 6:11 AM EDT 9:01 PM EDT
Moon 7:26 AM EDT (10/4) 7:02 PM EDT (10/4)
Length of Visible Light 12h 30m
Length of Day
11h 31m
Waning Crescent, 0% of the Moon is Illuminated
Oct 4
Waning Crescent
Oct 4
New
Oct 11
First Quarter
Oct 18
Full
Oct 26
Last Quarter

Hourly Weather History & Observations

Time (EDT) Temp. Dew Point Humidity Pressure Visibility Wind Dir Wind Speed Gust Speed Precip Events Conditions
12:35 AM 55.4 °F 48.2 °F 77% 29.94 in 10.0 mi NNE 6.9 mph - N/A   Overcast
12:55 AM 55.4 °F 50.0 °F 82% 29.95 in 10.0 mi North 5.8 mph - N/A   Overcast
1:15 AM 55.4 °F 48.2 °F 77% 29.96 in 10.0 mi North 6.9 mph - N/A   Overcast
1:35 AM 55.4 °F 48.2 °F 77% 29.96 in 10.0 mi NNE 8.1 mph - N/A   Overcast
1:55 AM 55.4 °F 48.2 °F 77% 29.95 in 10.0 mi NNE 8.1 mph - N/A   Overcast
2:15 AM 55.4 °F 48.2 °F 77% 29.94 in 10.0 mi NNE 6.9 mph - N/A   Overcast
2:35 AM 55.4 °F 48.2 °F 77% 29.94 in 10.0 mi NNE 6.9 mph - N/A   Overcast
2:55 AM 55.4 °F 48.2 °F 77% 29.96 in 10.0 mi North 5.8 mph - N/A   Overcast
3:15 AM 53.6 °F 48.2 °F 82% 29.96 in 10.0 mi North 6.9 mph - N/A   Overcast
3:35 AM 53.6 °F 48.2 °F 82% 29.96 in 10.0 mi NNE 6.9 mph - N/A   Overcast
3:55 AM 53.6 °F 48.2 °F 82% 29.96 in 10.0 mi NNE 8.1 mph - N/A   Overcast
4:15 AM 55.4 °F 48.2 °F 77% 29.96 in 10.0 mi North 8.1 mph - N/A   Overcast
4:35 AM 55.4 °F 48.2 °F 77% 29.97 in 10.0 mi NNE 6.9 mph - N/A   Overcast
4:55 AM 55.4 °F 48.2 °F 77% 29.96 in 10.0 mi NNE 8.1 mph - N/A   Overcast
5:15 AM 55.4 °F 48.2 °F 77% 29.96 in 10.0 mi NNE 8.1 mph - 0.01 in   Overcast
5:35 AM 53.6 °F 50.0 °F 88% 29.96 in 10.0 mi NNE 6.9 mph - 0.01 in   Overcast
5:55 AM 53.6 °F 48.2 °F 82% 29.97 in 10.0 mi NNE 6.9 mph - 0.01 in   Overcast
6:15 AM 55.4 °F 48.2 °F 77% 29.98 in 10.0 mi NE 5.8 mph - N/A   Overcast
6:35 AM 55.4 °F 48.2 °F 77% 29.98 in 10.0 mi NNE 5.8 mph - N/A   Overcast
6:55 AM 55.4 °F 48.2 °F 77% 30.00 in 10.0 mi NNE 4.6 mph - N/A   Overcast
7:15 AM 55.4 °F 48.2 °F 77% 30.01 in 10.0 mi NNE 4.6 mph - N/A   Overcast
7:35 AM 55.4 °F 48.2 °F 77% 30.01 in 10.0 mi NNE 4.6 mph - N/A   Overcast
7:55 AM 55.4 °F 48.2 °F 77% 30.01 in 10.0 mi North 5.8 mph - N/A   Overcast
8:15 AM 55.4 °F 48.2 °F 77% 30.02 in 10.0 mi NNE 5.8 mph - N/A   Overcast
8:35 AM 55.4 °F 50.0 °F 82% 30.01 in 10.0 mi ENE 5.8 mph - N/A   Overcast
8:55 AM 55.4 °F 50.0 °F 82% 30.02 in 10.0 mi NNE 4.6 mph - N/A   Overcast
9:15 AM 55.4 °F 50.0 °F 82% 30.02 in 10.0 mi NNE 6.9 mph - N/A   Overcast
9:35 AM 55.4 °F 50.0 °F 82% 30.03 in 10.0 mi North 8.1 mph - N/A   Overcast
9:55 AM 55.4 °F 50.0 °F 82% 30.02 in 10.0 mi NNE 9.2 mph - N/A   Overcast
10:15 AM 57.2 °F 51.8 °F 82% 30.02 in 10.0 mi NE 11.5 mph 16.1 mph N/A   Overcast
10:35 AM 57.2 °F 51.8 °F 82% 30.03 in 10.0 mi NE 12.7 mph 16.1 mph N/A   Overcast
10:55 AM 57.2 °F 50.0 °F 77% 30.03 in 10.0 mi ENE 8.1 mph - N/A   Overcast
11:15 AM 57.2 °F 50.0 °F 77% 30.04 in 10.0 mi NE 6.9 mph - N/A   Overcast
11:35 AM 57.2 °F 51.8 °F 82% 30.05 in 10.0 mi NE 9.2 mph - N/A   Overcast
11:55 AM 57.2 °F 51.8 °F 82% 30.05 in 10.0 mi NE 9.2 mph - N/A   Overcast
12:15 PM 57.2 °F 50.0 °F 77% 30.05 in 10.0 mi NE 8.1 mph - N/A   Overcast
12:35 PM 57.2 °F 50.0 °F 77% 30.05 in 10.0 mi NE 6.9 mph - N/A   Overcast
12:55 PM 59.0 °F 50.0 °F 72% 30.05 in 10.0 mi NE 8.1 mph - N/A   Overcast
1:15 PM 59.0 °F 50.0 °F 72% 30.06 in 10.0 mi NE 10.4 mph - N/A   Overcast
1:35 PM 59.0 °F 50.0 °F 72% 30.06 in 10.0 mi NE 9.2 mph - N/A   Overcast
1:55 PM 59.0 °F 50.0 °F 72% 30.06 in 10.0 mi NE 11.5 mph - N/A   Overcast
2:15 PM 59.0 °F 50.0 °F 72% 30.06 in 10.0 mi NE 9.2 mph - N/A   Overcast
2:35 PM 59.0 °F 50.0 °F 72% 30.06 in 10.0 mi ENE 6.9 mph - N/A   Overcast
2:55 PM 59.0 °F 50.0 °F 72% 30.06 in 10.0 mi NE 8.1 mph - N/A   Overcast
3:15 PM 60.8 °F 50.0 °F 68% 30.05 in 10.0 mi ENE 11.5 mph 16.1 mph N/A   Overcast
3:35 PM 60.8 °F 50.0 °F 68% 30.05 in 10.0 mi NE 8.1 mph 16.1 mph N/A   Overcast
3:55 PM 60.8 °F 50.0 °F 68% 30.05 in 10.0 mi ENE 9.2 mph - N/A   Overcast
4:15 PM 60.8 °F 50.0 °F 68% 30.05 in 10.0 mi NE 10.4 mph - N/A   Overcast
4:35 PM 60.8 °F 50.0 °F 68% 30.07 in 10.0 mi ENE 6.9 mph - N/A   Overcast
4:55 PM 60.8 °F 50.0 °F 68% 30.07 in 10.0 mi East 5.8 mph - N/A   Overcast
5:15 PM 60.8 °F 50.0 °F 68% 30.07 in 10.0 mi East 8.1 mph - N/A   Overcast
5:35 PM 59.0 °F 50.0 °F 72% 30.07 in 10.0 mi East 9.2 mph - N/A   Overcast
5:55 PM 59.0 °F 51.8 °F 77% 30.07 in 10.0 mi East 6.9 mph - N/A   Overcast
6:15 PM 59.0 °F 51.8 °F 77% 30.08 in 10.0 mi East 8.1 mph - N/A   Overcast
6:35 PM 59.0 °F 51.8 °F 77% 30.08 in 10.0 mi ENE 6.9 mph - N/A   Overcast
6:55 PM 59.0 °F 51.8 °F 77% 30.08 in 10.0 mi ENE 6.9 mph - N/A   Overcast
7:15 PM 57.2 °F 51.8 °F 82% 30.08 in 10.0 mi ENE 4.6 mph - N/A   Overcast
7:35 PM 57.2 °F 51.8 °F 82% 30.09 in 10.0 mi ENE 3.5 mph - N/A   Overcast
7:55 PM 57.2 °F 51.8 °F 82% 30.09 in 10.0 mi NE 8.1 mph - N/A   Overcast
8:15 PM 57.2 °F 51.8 °F 82% 30.08 in 10.0 mi NE 9.2 mph - N/A   Overcast
8:35 PM 57.2 °F 51.8 °F 82% 30.08 in 10.0 mi ENE 10.4 mph - N/A   Overcast
8:55 PM 57.2 °F 51.8 °F 82% 30.07 in 10.0 mi ENE 9.2 mph - N/A   Overcast
9:15 PM 57.2 °F 51.8 °F 82% 30.07 in 10.0 mi ENE 10.4 mph - N/A   Overcast
9:35 PM 57.2 °F 51.8 °F 82% 30.08 in 10.0 mi NE 10.4 mph - N/A   Overcast
9:55 PM 57.2 °F 51.8 °F 82% 30.09 in 10.0 mi ENE 9.2 mph - N/A   Overcast
10:15 PM 57.2 °F 50.0 °F 77% 30.10 in 10.0 mi ENE 10.4 mph 17.3 mph N/A   Overcast
10:35 PM 57.2 °F 51.8 °F 82% 30.11 in 10.0 mi ENE 8.1 mph - N/A   Overcast
10:55 PM 57.2 °F 50.0 °F 77% 30.11 in 10.0 mi ENE 6.9 mph - N/A   Overcast
11:15 PM 57.2 °F 50.0 °F 77% 30.09 in 10.0 mi NE 8.1 mph - N/A   Overcast
11:35 PM 55.4 °F 51.8 °F 88% 30.08 in 10.0 mi ENE 11.5 mph - 0.01 in   Overcast
11:55 PM 55.4 °F 51.8 °F 88% 30.09 in 10.0 mi ENE 8.1 mph - 0.01 in   Overcast